Location: Unspecified
(51.0950°N, 12.9690°E)
Time: 21:12:19
(UTC+00:00)

CENTAUR R/B - Pass Details

Date: 28 October 2021
Orbit: 728 x 1459 km, 63.4° (Epoch: 26 November)

Event Time Altitude Azimuth Distance (km) Brightness Sun altitude
Rises 20:18:37 0° 315° (NW) 4,154 6.6 -41.3°
Reaches altitude 10° 20:21:20 10° 311° (NW) 3,276 5.9 -41.6°
Enters shadow 20:27:18 45° 274° (W) 1,796 3.9 -42.4°
